Location: Unspecified
(0.0000°N, 0.0000°E)
Time: 13:40:09
(UTC+02:00)

NOSS 3-3 (A) - Visible Passes

Search period start: 02 September 2014 00:00
Search period end: 12 September 2014 00:00
Orbit: 975 x 1238 km, 63.4° (Epoch: 31 August)

Date Brightness Start Highest point End Pass type
(mag) Time Alt. Az. Time Alt. Az. Time Alt. Az.
02 Sep 7.1 07:24:02 10° NNE 07:29:14 20° ENE 07:34:26 10° ESE visible
02 Sep 4.4 20:51:27 10° SSW 20:57:45 67° WNW 21:04:03 10° NNE visible
03 Sep 7.1 22:03:11 10° WNW 22:03:55 10° WNW 22:04:40 10° WNW visible
04 Sep 6.4 21:14:32 10° WSW 21:19:17 22° WNW 21:24:04 10° NNW visible
05 Sep 6.6 06:59:52 10° N 07:06:15 29° ENE 07:12:40 10° ESE visible
05 Sep 5.3 20:28:45 10° SW 20:34:43 44° WNW 20:40:43 10° N visible
06 Sep 7.2 06:17:33 10° NNE 06:21:36 15° ENE 06:25:40 10° E visible
07 Sep 4.9 07:20:10 10° NNW 07:27:51 73° ENE 07:35:34 10° SSE visible
07 Sep 6.9 20:53:08 10° W 20:56:18 14° WNW 20:59:30 10° NW visible
08 Sep 5.8 06:36:09 10° N 06:43:16 41° ENE 06:50:25 10° SE visible
09 Sep 6.6 05:52:56 10° NNE 05:58:39 23° ENE 06:04:24 10° ESE visible
10 Sep 7.2 05:11:54 10° NE 05:13:58 11° ENE 05:16:03 10° E visible
10 Sep 4.5 06:57:07 10° NNW 07:04:51 82° WSW 07:12:35 10° SSE visible
11 Sep 5.0 06:12:44 10° N 06:20:16 59° ENE 06:27:50 10° SE visible
